Location: Olomouc
(49.5830°N, 17.2500°E)
Time: 19:51:01
(UTC+02:00)

ISS - Pass Details

Date: 12 May 2021
Orbit: 417 x 422 km, 51.6° (Epoch: 14 June)

Event Time Altitude Azimuth Distance (km) Brightness Sun altitude
Exits shadow 01:16:59 50° 55° (NE) 547 -3.0 -22.0°
Drops below altitude 10° 01:19:38 10° 73° (ENE) 1,509 -0.6 -21.9°
Sets 01:21:45 0° 75° (ENE) 2,376 0.4 -21.9°
